Date String (YYYY-MM-DD hh:mm:ss) UTC,Instrument flags,absolute air pressure of the measurement (hPa),sample flow rate (lpm),inlet stack bypass flow (lpm),air temperature of the measurement (°C),ambient temperature measured by the external sensor (°C),aerosol sample conditioner tube jacket temperature (°C),OPC LED temperature (°C),internal box temperature (°C),relative humidity of the measurement (%),span deviation,mass concentration of particles derived from Lorenz-Mie calculation of OPC scattering (μg/m³),mass concentration of particles derived from Lorenz-Mie calculation of OPC scattering (μg/m³),mass concentration of particles derived from Lorenz-Mie calculation of OPC scattering (μg/m³)
DateTimeUTC,F1_M11,P_M11,Q1_M11,Q2_M11,T1_M11,T2_M11,T3_M11,T4_M11,T5_M11,U1_M11,ZSPAN_M11,X0_M11,X2_M11,X1_M11
2023-12-23 04:00:00,SystemResetWarning,0826.2,4.99,000.00,025.6,024.4,000.0,034.0,026.9,11.5,0000.0,0005.70,0003.10,0002.48
2023-12-23 04:01:00,SystemResetWarning,0826.2,4.99,000.00,025.6,024.4,000.0,034.0,026.9,11.5,0000.0,0005.65,0003.07,0002.47
2023-12-23 04:02:00,SystemResetWarning,0826.2,5.00,000.00,025.5,024.4,000.0,034.0,026.9,11.5,0000.0,0005.58,0003.10,0002.51
2023-12-23 04:03:00,SystemResetWarning,0826.2,5.02,000.00,025.5,024.3,000.0,034.0,026.9,11.5,0000.0,0005.61,0003.15,0002.61
2023-12-23 04:04:00,SystemResetWarning,0826.2,5.00,000.00,025.5,024.3,000.0,033.9,026.9,11.5,0000.0,0005.20,0003.15,0002.64
2023-12-23 04:05:00,SystemResetWarning,0826.2,4.99,000.00,025.5,024.3,000.0,033.9,026.9,11.5,0000.0,0005.94,0003.14,0002.62
2023-12-23 04:06:00,SystemResetWarning,0826.2,5.00,000.00,025.5,024.3,000.0,033.9,026.9,11.5,0000.0,0006.26,0003.16,0002.67
2023-12-23 04:07:00,SystemResetWarning,0826.2,4.99,000.00,025.5,024.3,000.0,033.9,026.9,11.5,0000.0,0006.50,0003.26,0002.82
2023-12-23 04:08:00,SystemResetWarning,0826.1,5.00,000.00,025.5,024.3,000.0,033.9,026.9,11.5,0000.0,0006.94,0003.34,0002.94
2023-12-23 04:09:00,SystemResetWarning,0826.1,5.00,000.00,025.5,024.3,000.0,033.9,026.9,11.5,0000.0,0007.73,0003.42,0003.04
2023-12-23 04:10:00,SystemResetWarning,0826.1,5.01,000.00,025.5,024.4,000.0,033.9,026.9,11.5,0000.0,0007.98,0003.54,0003.15
2023-12-23 04:11:00,SystemResetWarning,0826.1,4.98,000.00,025.5,024.3,000.0,033.9,026.9,11.5,0000.0,0007.87,0003.64,0003.23
2023-12-23 04:12:00,SystemResetWarning,0826.1,4.99,000.00,025.5,024.3,000.0,033.9,026.9,11.5,0000.0,0008.04,0003.78,0003.36
2023-12-23 04:13:00,SystemResetWarning,0826.1,5.01,000.00,025.5,024.3,000.0,033.9,026.9,11.5,0000.0,0008.89,0003.92,0003.48
2023-12-23 04:14:00,SystemResetWarning,0826.1,5.00,000.00,025.5,024.3,000.0,033.9,026.8,11.4,0000.0,0009.27,0004.08,0003.60
2023-12-23 04:15:00,SystemResetWarning,0826.0,4.99,000.00,025.5,024.3,000.0,033.9,026.9,11.4,0000.0,0009.79,0004.20,0003.70
2023-12-23 04:16:00,SystemResetWarning,0826.1,5.00,000.00,025.5,024.3,000.0,033.9,026.8,11.5,0000.0,0009.54,0004.29,0003.79
2023-12-23 04:17:00,SystemResetWarning,0826.0,5.00,000.00,025.5,024.3,000.0,033.8,026.8,11.5,0000.0,0009.48,0004.35,0003.86
2023-12-23 04:18:00,SystemResetWarning,0826.0,4.99,000.00,025.4,024.3,000.0,033.8,026.8,11.5,0000.0,0009.67,0004.35,0003.86
2023-12-23 04:19:00,SystemResetWarning,0826.0,5.01,000.00,025.4,024.3,000.0,033.8,026.8,11.5,0000.0,0010.83,0004.42,0003.91
2023-12-23 04:20:00,SystemResetWarning,0826.0,4.99,000.00,025.4,024.3,000.0,033.8,026.8,11.5,0000.0,0010.70,0004.50,0003.98
2023-12-23 04:21:00,SystemResetWarning,0826.0,5.00,000.00,025.4,024.3,000.0,033.8,026.8,11.5,0000.0,0011.02,0004.42,0003.94
2023-12-23 04:22:00,SystemResetWarning,0826.0,5.00,000.00,025.4,024.3,000.0,033.8,026.8,11.5,0000.0,0011.01,0004.41,0003.92
2023-12-23 04:23:00,SystemResetWarning,0826.0,5.00,000.00,025.4,024.3,000.0,033.8,026.8,11.5,0000.0,0010.98,0004.40,0003.90
2023-12-23 04:24:00,SystemResetWarning,0826.0,5.00,000.00,025.4,024.3,000.0,033.8,026.8,11.5,0000.0,0010.68,0004.35,0003.89
2023-12-23 04:25:00,SystemResetWarning,0826.0,5.00,000.00,025.4,024.3,000.0,033.8,026.8,11.6,0000.0,0011.27,0004.23,0003.82
2023-12-23 04:26:00,SystemResetWarning,0826.0,5.00,000.00,025.4,024.3,000.0,033.8,026.8,11.5,0000.0,0010.86,0004.10,0003.73
2023-12-23 04:27:00,SystemResetWarning,0826.0,5.01,000.00,025.4,024.3,000.0,033.8,026.8,11.6,0000.0,0011.34,0004.01,0003.65
2023-12-23 04:28:00,SystemResetWarning,0826.0,5.02,000.00,025.4,024.3,000.0,033.8,026.8,11.6,0000.0,0011.61,0003.98,0003.64
2023-12-23 04:29:00,SystemResetWarning,0825.9,4.99,000.00,025.4,024.3,000.0,033.8,026.8,11.6,0000.0,0011.51,0004.05,0003.70
2023-12-23 04:30:00,SystemResetWarning,0825.9,4.99,000.00,025.4,024.3,000.0,033.8,026.8,11.5,0000.0,0010.40,0004.10,0003.75
2023-12-23 04:31:00,SystemResetWarning,0825.9,5.00,000.00,025.4,024.4,000.0,033.8,026.9,11.5,0000.0,0010.77,0004.15,0003.79
2023-12-23 04:32:00,SystemResetWarning,0825.9,5.01,000.00,025.4,024.4,000.0,033.8,026.8,11.5,0000.0,0010.77,0004.36,0003.96
2023-12-23 04:33:00,SystemResetWarning,0825.9,5.00,000.00,025.4,024.4,000.0,033.8,026.9,11.5,0000.0,0011.44,0004.49,0004.10
2023-12-23 04:34:00,SystemResetWarning,0825.9,5.00,000.00,025.4,024.3,000.0,033.8,026.8,11.6,0000.0,0011.69,0004.60,0004.19
2023-12-23 04:35:00,SystemResetWarning,0825.9,4.99,000.00,025.4,024.3,000.0,033.8,026.8,11.6,0000.0,0011.89,0004.68,0004.26
2023-12-23 04:36:00,SystemResetWarning,0825.9,4.99,000.00,025.4,024.3,000.0,033.8,026.8,11.6,0000.0,0011.51,0004.81,0004.36
2023-12-23 04:37:00,SystemResetWarning,0825.9,5.01,000.00,025.4,024.3,000.0,033.8,026.7,11.6,0000.0,0012.55,0004.99,0004.49
2023-12-23 04:38:00,SystemResetWarning,0825.9,5.01,000.00,025.4,024.3,000.0,033.8,026.8,11.6,0000.0,0012.45,0005.14,0004.62
2023-12-23 04:39:00,SystemResetWarning,0825.9,5.00,000.00,025.4,024.2,000.0,033.7,026.8,11.6,0000.0,0012.68,0005.28,0004.71
2023-12-23 04:40:00,SystemResetWarning,0825.9,5.00,000.00,025.4,024.2,000.0,033.7,026.7,11.5,0000.0,0013.58,0005.36,0004.78
2023-12-23 04:41:00,SystemResetWarning,0825.9,5.00,000.00,025.4,024.2,000.0,033.7,026.7,11.5,0000.0,0013.86,0005.28,0004.73
2023-12-23 04:42:00,SystemResetWarning,0825.9,4.99,000.00,025.3,024.2,000.0,033.7,026.7,11.5,0000.0,0013.50,0005.17,0004.67
2023-12-23 04:43:00,SystemResetWarning,0826.0,4.99,000.00,025.3,024.2,000.0,033.7,026.7,11.5,0000.0,0013.35,0005.03,0004.56
2023-12-23 04:44:00,SystemResetWarning,0825.9,5.00,000.00,025.3,024.2,000.0,033.7,026.7,11.5,0000.0,0012.95,0004.96,0004.46
2023-12-23 04:45:00,SystemResetWarning,0825.9,5.00,000.00,025.3,024.2,000.0,033.7,026.7,11.4,0000.0,0013.14,0004.91,0004.42
2023-12-23 04:46:00,SystemResetWarning,0826.0,4.99,000.00,025.3,024.2,000.0,033.7,026.7,11.4,0000.0,0012.81,0004.85,0004.36
2023-12-23 04:47:00,SystemResetWarning,0825.9,5.00,000.00,025.3,024.2,000.0,033.7,026.7,11.4,0000.0,0012.61,0004.82,0004.31
2023-12-23 04:48:00,SystemResetWarning,0825.9,5.01,000.00,025.3,024.2,000.0,033.7,026.7,11.4,0000.0,0011.74,0004.73,0004.25
2023-12-23 04:49:00,SystemResetWarning,0825.9,5.01,000.00,025.3,024.2,000.0,033.7,026.7,11.4,0000.0,0011.15,0004.63,0004.18
2023-12-23 04:50:00,SystemResetWarning,0825.9,4.99,000.00,025.3,024.1,000.0,033.7,026.7,11.4,0000.0,0010.69,0004.55,0004.10
2023-12-23 04:51:00,SystemResetWarning,0825.9,4.99,000.00,025.3,024.1,000.0,033.7,026.7,11.4,0000.0,0010.61,0004.48,0004.01
2023-12-23 04:52:00,SystemResetWarning,0825.9,5.01,000.00,025.3,024.1,000.0,033.7,026.7,11.4,0000.0,0010.29,0004.48,0004.00
2023-12-23 04:53:00,SystemResetWarning,0825.8,5.01,000.00,025.3,024.1,000.0,033.7,026.7,11.3,0000.0,0010.25,0004.54,0004.02
2023-12-23 04:54:00,SystemResetWarning,0825.8,4.97,000.00,025.3,024.1,000.0,033.7,026.7,11.3,0000.0,0010.23,0004.54,0004.00
2023-12-23 04:55:00,SystemResetWarning,0825.8,5.01,000.00,025.3,024.1,000.0,033.7,026.6,11.3,0000.0,0010.42,0004.56,0004.01
2023-12-23 04:56:00,SystemResetWarning,0825.8,5.01,000.00,025.3,024.1,000.0,033.7,026.6,11.3,0000.0,0010.51,0004.52,0003.97
2023-12-23 04:57:00,SystemResetWarning,0825.8,4.99,000.00,025.3,024.1,000.0,033.6,026.7,11.4,0000.0,0010.68,0004.52,0003.96
2023-12-23 04:58:00,SystemResetWarning,0825.8,5.00,000.00,025.3,024.1,000.0,033.6,026.6,11.3,0000.0,0010.54,0004.44,0003.92
2023-12-23 04:59:00,SystemResetWarning,0825.8,5.01,000.00,025.2,024.1,000.0,033.6,026.6,11.4,0000.0,0011.38,0004.38,0003.85
